Wattisham, United Kingdom

9:51 PM GMT on November 17, 2017 (GMT +0000)
Wattisham Army

Weather History for EGUW - August, 2013

Change the Weather History Date:

Friday, August 16, 2013

  Actual Average Record
Temperature  
Mean Temperature 64 °F -  
Max Temperature 69 °F - - ()
Min Temperature 57 °F - - ()
Degree Days  
Heating Degree Days 1    
Growing Degree Days 14 (Base 50)    
Moisture  
Dew Point 60 °F    
Average Humidity 88    
Maximum Humidity 100    
Minimum Humidity 68    
Precipitation  
Precipitation 0.12 in - - ()
Sea Level Pressure  
Sea Level Pressure 29.95 in    
Wind  
Wind Speed 9 mph ()    
Max Wind Speed 14 mph    
Max Gust Speed -    
Visibility 5.9 miles    
Events Fog , Rain    
T = Trace of Precipitation, MM = Missing Value Source: Averaged Metar Reports

Daily Weather History Graph

Daily Weather History Graph

Search for Another Location

Airport or City:

Trip Planner

Search our weather history database for the weather conditions in past years. The results will help you decide how hot, cold, wet, or windy it might be!

Date:

Astronomy

Aug. 16, 2013 Rise Set
Actual Time 5:41 AM BST 8:18 PM BST
Civil Twilight 5:03 AM BST 8:55 PM BST
Nautical Twilight 4:14 AM BST 9:44 PM BST
Astronomical Twilight 3:15 AM BST 10:42 PM BST
Moon 4:37 PM BST (8/16) 12:15 AM BST (8/16)
Length of Visible Light 15h 52m
Length of Day
14h 36m
Waxing Gibbous, 72% of the Moon is Illuminated
Aug 16
Waxing Gibbous
Aug 21
Full
Aug 28
Last Quarter
Sep 5
New
Sep 12
First Quarter

Hourly Weather History & Observations

Time (BST) Temp. Dew Point Humidity Pressure Visibility Wind Dir Wind Speed Gust Speed Precip Events Conditions
12:50 AM 60.8 °F 57.2 °F 88% 29.98 in - South 6.9 mph - N/A   Clear
1:50 AM 60.8 °F 57.2 °F 88% 29.98 in - SSW 8.1 mph - N/A   Clear
2:50 AM 60.8 °F 57.2 °F 88% 29.98 in - SSW 10.4 mph - N/A   Clear
3:50 AM 60 °F 57 °F 88% 29.98 in 31 mi SW 9.2 mph - - Rain Light Rain
3:50 AM 60.8 °F 57.2 °F 88% 29.98 in 6.2 mi SW 9.2 mph - N/A Rain Light Rain
4:50 AM 60.8 °F 57.2 °F 88% 29.95 in - SSW 9.2 mph - N/A   Clear
5:50 AM 59.0 °F 57.2 °F 94% 29.95 in 6.2 mi SSW 9.2 mph - N/A Rain Light Rain
6:50 AM 60 °F 58 °F 90% 29.96 in 16 mi SSW 10.4 mph - - Rain Light Rain
6:50 AM 60.8 °F 57.2 °F 88% 29.95 in 6.2 mi SSW 10.4 mph - N/A   Mostly Cloudy
7:50 AM 62.6 °F 59.0 °F 88% 29.95 in 6.2 mi SSW 11.5 mph - N/A   Scattered Clouds
8:50 AM 62.6 °F 59.0 °F 88% 29.95 in 6.2 mi SW 12.7 mph - N/A Rain Light Rain
8:56 AM 62.6 °F 59.0 °F 88% 29.95 in 6.2 mi SW 13.8 mph - N/A Rain Light Rain
9:50 AM 62 °F 60 °F 92% 29.96 in 6 mi SSW 10.4 mph - - Rain Rain
9:50 AM 62.6 °F 60.8 °F 94% 29.95 in 5.6 mi SSW 10.4 mph - N/A Rain Rain
10:50 AM 62.6 °F 60.8 °F 94% 29.95 in 5.6 mi SW 13.8 mph - N/A Rain Rain
11:24 AM 62.6 °F 60.8 °F 94% 29.95 in 6.2 mi SW 13.8 mph - N/A Rain Light Rain
11:50 AM 64.4 °F 60.8 °F 88% 29.95 in 6.2 mi SW 12.7 mph - N/A Rain Light Rain
12:50 PM 65 °F 62 °F 87% 29.96 in 14 mi SW 12.7 mph - - Rain Light Rain
12:50 PM 66.2 °F 62.6 °F 88% 29.95 in 6.2 mi SW 12.7 mph - N/A   Mostly Cloudy
1:30 PM 66.2 °F 60.8 °F 83% 29.95 in 6.2 mi SW 12.7 mph - N/A   Mostly Cloudy
1:50 PM 66.2 °F 60.8 °F 83% 29.95 in 6.2 mi SW 11.5 mph - N/A   Mostly Cloudy
2:50 PM 66.2 °F 60.8 °F 83% 29.95 in 6.2 mi SSW 10.4 mph - N/A   Mostly Cloudy
3:50 PM 69 °F 61 °F 69% 29.94 in 25 mi SSW 12.7 mph - -   Mostly Cloudy
3:50 PM 68.0 °F 60.8 °F 78% 29.92 in 6.2 mi SSW 12.7 mph - N/A   Mostly Cloudy
4:24 PM 69.8 °F 60.8 °F 73% 29.92 in 6.2 mi SSW 12.7 mph - N/A   Mostly Cloudy
4:50 PM 69.8 °F 59.0 °F 68% 29.92 in 6.2 mi SW 13.8 mph - N/A   Mostly Cloudy
5:50 PM 69.8 °F 60.8 °F 73% 29.92 in 6.2 mi SSW 10.4 mph - N/A   Scattered Clouds
6:50 PM 66 °F 62 °F 85% 29.95 in 1 mi NW 6.9 mph - - Rain Heavy Rain Showers
6:50 PM 66.2 °F 62.6 °F 88% 29.95 in 1.4 mi NW 6.9 mph - N/A Rain Heavy Rain Showers
7:50 PM 64.4 °F 60.8 °F 88% 29.95 in 6.2 mi SW 8.1 mph - N/A   Scattered Clouds
8:50 PM 60.8 °F 59.0 °F 94% 29.95 in 6.2 mi WSW 3.5 mph - N/A   Unknown
9:50 PM 59 °F 59 °F 99% 29.97 in 4 mi WSW 4.6 mph - -   Mist
9:50 PM 59.0 °F 59.0 °F 100% 29.98 in 3.7 mi WSW 4.6 mph - N/A   Mist
10:50 PM 59.0 °F 59.0 °F 100% 29.98 in 1.5 mi SSW 5.8 mph - N/A   Partly Cloudy
11:50 PM 57.2 °F 57.2 °F 100% 29.98 in 0.1 mi SW 5.8 mph - N/A Fog Fog